Location: Butler
(32.5575°N, 84.2380°W)
Time: 07:01:20
(UTC+00:00)

N. Korean satellite - Pass Details

Date: 04 December 2021
Orbit: 447 x 491 km, 97.3° (Epoch: 22 January)

Event Time Altitude Azimuth Distance (km) Brightness Sun altitude
Rises 11:09:25 0° 1° (N) 2,453 10.0 -15.4°
Reaches altitude 10° 11:11:32 10° 353° (N) 1,576 8.9 -14.9°
Maximum altitude 11:14:40 36° 285° (WNW) 720 6.9 -14.3°
Drops below altitude 10° 11:17:46 10° 217° (SW) 1,567 9.0 -13.7°
Sets 11:19:53 0° 208° (SSW) 2,438 10.0 -13.3°
